Location: Bastrop State Park
(30.1090°N, 97.2819°W)
Time: 13:57:07
(UTC-05:00)

Daily predictions for brighter satellites

Satellite Brightness Start Highest point End
(mag) Time Altitude Azimuth Time Altitude Azimuth Time Altitude Azimuth
Cosmos 2369 4.0 20:07:02 10° SSW 20:12:40 75° WNW 20:18:23 10° NNE
Meteor 2-4 Rocket 3.9 20:07:31 10° N 20:13:27 81° E 20:19:22 10° S
Resurs 01 Rocket 2.0 20:10:31 10° SSE 20:14:44 46° ENE 20:18:59 10° N
BREEZE-M DEB (TANK) 3.6 20:03:36 10° NW 20:15:41 78° SW 20:19:12 10° SE
Cosmos 1656 3.7 20:11:51 10° S 20:17:23 63° ESE 20:22:54 10° NNE
Meteor 2-16 Rocket 4.4 20:11:43 10° S 20:17:46 78° E 20:23:51 10° N
Cosmos 1461 3.0 20:14:41 10° NNW 20:18:36 52° ENE 20:22:24 10° SE
NOSS 3-4 (A) 3.9 20:12:57 10° NNW 20:20:07 73° ENE 20:27:39 10° SE
NOSS 3-4 (C) 3.9 20:13:05 10° NNW 20:20:15 72° ENE 20:27:47 10° SE
CZ-4B DEB 4.2 20:18:59 10° SE 20:21:33 21° ENE 20:24:07 10° NNE
Cosmos 1777 Rocket 4.3 20:17:52 10° NNW 20:23:08 75° WSW 20:28:23 10° S
Meteor 1-28 Rocket 4.4 20:21:20 10° N 20:25:00 48° WNW 20:28:38 10° SSW
NOAA 12 4.3 20:24:22 10° S 20:29:35 79° WSW 20:34:49 10° NNW
Cosmos 1500 3.9 20:34:05 10° SSE 20:37:23 30° E 20:40:43 10° NNE
Lacrosse 5 3.4 20:35:05 10° N 20:38:51 21° NE 20:41:56 13° E
Fermi 4.3 20:35:07 10° WSW 20:39:02 44° S 20:42:00 16° ESE
Spot 2 Rocket 3.5 20:34:23 10° SSE 20:39:28 87° WSW 20:44:34 10° NNW
Iridium 4 Rocket 4.1 20:36:33 10° NNE 20:40:35 28° E 20:44:10 11° SE
Cosmos 1975 2.8 20:36:53 10° S 20:40:56 62° E 20:44:59 10° NNE
Cosmos 2322 Rocket 4.0 20:43:34 11° E 20:43:34 11° E 20:44:20 10° ENE
CZ-2D R/B 4.0 20:39:07 11° SE 20:42:28 32° ENE 20:45:57 10° N
EO 1 Delta rocket 4.3 20:38:27 10° NNE 20:43:28 61° E 20:49:37 10° S
Cosmos 2227 Rocket 2.2 20:38:29 10° NNW 20:44:10 83° ENE 20:49:48 10° SSE
OTV 4 0.4 20:42:53 10° WNW 20:45:50 74° SSW 20:47:34 22° SE
Lacrosse 5 rocket 0.9 20:44:38 10° NNW 20:48:18 75° NE 20:50:50 18° SE
Hubble Space Telescope 3.1 20:46:37 10° WSW 20:49:07 15° SSW 20:51:36 10° SSE
Cosmos 2084 4.2 20:45:49 10° N 20:49:37 34° ENE 20:51:53 20° ESE
USA 186 2.5 20:53:34 27° ESE 20:54:12 30° ENE 20:56:47 10° NNE
FengYun 1-2 T 4.2 20:49:16 10° SSE 20:54:54 88° ENE 21:00:32 10° NNW
Cosmos 2297 Rocket 2.1 20:53:12 10° NNW 20:58:52 78° ENE 21:04:19 11° SSE
Cosmos 1605 Rocket 4.4 20:53:19 10° SSW 20:59:38 68° W 21:05:52 10° N
Cosmos 2360 4.5 20:55:56 10° S 21:01:16 43° ESE 21:06:39 10° NE
Cosmos 1626 Rocket 3.4 20:57:04 10° N 21:01:25 70° E 21:05:43 10° SSE
ALOS 2.2 20:57:01 10° SSE 21:01:40 73° ENE 21:06:19 10° N
Cosmos 2082 3.9 20:56:05 10° NNW 21:01:41 73° WSW 21:07:17 10° S
Cosmos 220 Rocket 3.8 20:58:22 10° NNW 21:02:35 79° ENE 21:05:52 16° SSE
Cosmos 2298 Rocket 4.2 20:59:29 10° N 21:04:42 54° ENE 21:08:05 21° SE
Cosmos 1515 3.7 21:04:10 10° N 21:07:56 58° E 21:09:45 28° SSE
ERS-1 Rocket 4.0 21:08:47 25° E 21:09:40 26° ENE 21:13:48 10° NNE
OAO 2 Rocket 3.9 21:04:50 10° WNW 21:09:41 50° N 21:12:34 23° ENE
Cosmos 2100 Rocket 4.0 21:05:09 10° S 21:11:18 59° E 21:17:24 10° NNE
Cosmos 1602 Rocket 3.5 21:07:41 10° N 21:12:08 85° W 21:16:30 10° S
Tiangong 1 3.2 21:19:24 10° NNW 21:21:34 17° NNE 21:21:38 17° NNE
Cosmos 1763 Rocket 3.3 21:16:42 10° S 21:21:48 74° ESE 21:26:52 10° NNE
Cosmos 1743 2.6 21:20:18 33° SSE 21:21:52 65° E 21:25:45 10° NNE
Cosmos 1939 Rocket 4.3 21:23:17 23° NE 21:23:17 23° NE 21:25:47 10° NNE
Cosmos 1697 Rocket 4.0 21:20:48 10° SW 21:26:06 41° WNW 21:31:25 10° N
Cosmos 2061 Rocket 3.9 21:21:33 10° S 21:27:50 75° E 21:34:05 10° N
Cosmos 2150 Rocket 3.8 21:24:24 10° NNW 21:29:35 84° ENE 21:31:50 35° SSE
Cosmos 1459 Rocket 3.8 21:28:33 10° S 21:34:35 88° E 21:40:43 10° N
Cosmos 1606 Rocket 3.4 21:38:27 70° SE 21:38:46 75° E 21:43:11 10° N
Cosmos 2058 Rocket 4.5 21:40:58 26° NE 21:40:58 26° NE 21:43:09 10° NNE
Cosmos 1066 Rocket 4.3 21:33:50 10° N 21:39:36 84° W 21:43:02 26° S
Cosmos 1898 Rocket 3.6 21:34:26 10° NNW 21:39:42 72° WSW 21:42:03 33° S
SL-16 R/B 2.8 21:41:43 37° ENE 21:41:43 37° ENE 21:45:31 10° NNE
Cosmos 1725 Rocket 4.2 21:42:59 44° E 21:42:59 44° E 21:48:40 10° NNE
Cosmos 2098 Rocket 4.1 21:43:33 41° SE 21:45:39 57° E 21:51:27 10° NNE
Cosmos 841 Rocket 3.7 21:41:52 10° SSW 21:47:05 71° WNW 21:52:18 10° N
Cosmos 1980 Rocket 3.3 21:45:13 10° SW 21:50:34 43° WNW 21:55:59 10° N
RESURS DK-1 2.7 21:50:27 10° NNW 21:54:08 62° WNW 21:54:08 62° WNW
DELTA 2 R/B (1) 3.4 21:49:22 10° WNW 21:54:56 78° SSW 21:55:21 73° SSE
Cosmos 1726 Rocket 4.1 22:01:45 56° NNW 22:01:45 56° NNW 22:05:22 10° N
CZ-3 Stage 3 4.0 20:55:56 10° W 22:02:53 72° SSW 22:05:23 49° SE
Milstar 3 Cent rocket 4.0 21:51:37 10° W 22:14:33 75° SSW 22:18:32 51° SE
Cosmos 2263 Rocket 4.2 22:16:30 10° NNE 22:18:17 17° NNE 22:18:17 17° NNE
Lacrosse 5 2.7 22:17:08 10° NW 22:21:09 46° W 22:21:09 46° W
SPOT 5 4.4 22:27:02 31° N 22:27:02 31° N 22:29:29 10° N
Cosmos 2322 Rocket 2.6 22:25:06 59° W 22:25:20 60° WNW 22:30:53 10° NNE
Envisat 3.8 22:29:51 47° WNW 22:29:51 47° WNW 22:33:48 10° NNW
H-2A R/B 4.4 22:32:10 19° NNW 22:32:10 19° NNW 22:33:22 10° NNW
SL-16 R/B 4.5 23:23:20 18° WNW 23:24:24 19° WNW 23:28:20 10° NNW
